FCYISA CYYR-KBGR

Flight info

Callsign FCYISA
Flight time N/A
Altitude 34000
Route TASTI DCT ALKOB DCT TABRU DCT QUBIS DCT PQI J49 BGR
Aircraft B738/M-SDE2E3FGHIRWXY/LB1

Departure

Time N/A
Airport Goose Bay Airport (CYYR)

Arrival

Time 2026-04-25 07:10
Airport Bangor International Airport (KBGR)
Time Latitude Longitude Altitude Speed Heading
2026-04-25 05:47 52.26690 -62.47099 27457 ft 502 kts 230°
2026-04-25 05:47 52.24505 -62.51543 27752 ft 502 kts 230°
2026-04-25 05:47 52.22315 -62.55987 28106 ft 502 kts 230°
2026-04-25 05:47 52.20334 -62.60002 28447 ft 500 kts 230°
2026-04-25 05:48 52.18151 -62.64419 28828 ft 499 kts 230°
2026-04-25 05:48 52.15970 -62.68824 29165 ft 499 kts 230°
2026-04-25 05:48 52.13790 -62.73219 29490 ft 499 kts 230°
2026-04-25 05:48 52.11609 -62.77608 29837 ft 498 kts 230°
2026-04-25 05:49 52.09428 -62.81988 30190 ft 497 kts 230°
2026-04-25 05:49 52.07252 -62.86354 30480 ft 497 kts 230°
2026-04-25 05:49 52.05070 -62.90722 30700 ft 498 kts 230°
2026-04-25 05:49 52.02888 -62.95084 30916 ft 498 kts 230°
2026-04-25 05:50 52.00701 -62.99447 31182 ft 498 kts 230°
2026-04-25 05:50 51.98514 -63.03802 31465 ft 497 kts 230°
2026-04-25 05:50 51.96328 -63.08151 31713 ft 497 kts 230°
2026-04-25 05:50 51.94138 -63.12498 31940 ft 497 kts 230°
2026-04-25 05:51 51.91946 -63.16842 32164 ft 497 kts 230°
2026-04-25 05:51 51.89752 -63.21183 32416 ft 497 kts 230°
2026-04-25 05:51 51.87561 -63.25510 32611 ft 498 kts 230°
2026-04-25 05:51 51.85363 -63.29843 32815 ft 498 kts 230°
2026-04-25 05:52 51.83159 -63.34181 33076 ft 497 kts 230°
2026-04-25 05:52 51.80961 -63.38501 33351 ft 496 kts 230°
2026-04-25 05:52 51.78769 -63.42799 33626 ft 495 kts 230°
2026-04-25 05:52 51.76609 -63.47031 33883 ft 494 kts 230°
2026-04-25 05:53 51.74419 -63.51312 34088 ft 494 kts 230°
2026-04-25 05:53 51.70016 -63.59899 34137 ft 497 kts 230°
2026-04-25 05:54 51.65617 -63.68450 34133 ft 494 kts 230°
2026-04-25 05:54 51.59049 -63.81164 34136 ft 490 kts 230°
2026-04-25 05:55 51.54686 -63.89576 34139 ft 489 kts 230°
2026-04-25 05:55 51.50306 -63.97995 34153 ft 494 kts 229°
2026-04-25 05:56 51.45283 -64.05537 34147 ft 496 kts 211°
2026-04-25 05:56 51.39461 -64.11513 34148 ft 499 kts 210°
2026-04-25 05:57 51.33571 -64.17473 34139 ft 501 kts 210°
2026-04-25 05:57 51.27704 -64.23485 34128 ft 501 kts 210°
2026-04-25 05:58 51.21853 -64.29520 34119 ft 500 kts 210°
2026-04-25 05:58 51.16060 -64.35492 34122 ft 498 kts 210°
2026-04-25 05:59 51.10236 -64.41474 34117 ft 496 kts 210°
2026-04-25 05:59 51.04451 -64.47393 34113 ft 494 kts 210°
2026-04-25 06:00 50.98683 -64.53278 34115 ft 492 kts 210°
2026-04-25 06:00 50.92925 -64.59131 34118 ft 491 kts 210°
2026-04-25 06:01 50.87170 -64.64964 34132 ft 491 kts 209°
2026-04-25 06:01 50.81406 -64.70788 34115 ft 492 kts 209°
2026-04-25 06:02 50.75624 -64.76624 34110 ft 494 kts 209°
2026-04-25 06:02 50.69811 -64.82464 34099 ft 496 kts 209°
2026-04-25 06:03 50.63976 -64.88302 34104 ft 498 kts 209°
2026-04-25 06:03 50.58160 -64.94110 34103 ft 499 kts 209°
2026-04-25 06:04 50.52295 -64.99951 34103 ft 499 kts 209°
2026-04-25 06:04 50.46414 -65.05790 34098 ft 500 kts 208°
2026-04-25 06:05 50.40528 -65.11617 34092 ft 500 kts 208°
2026-04-25 06:05 50.34645 -65.17424 34093 ft 499 kts 208°
2026-04-25 06:06 50.28769 -65.23208 34105 ft 497 kts 208°
2026-04-25 06:06 50.22906 -65.28962 34086 ft 496 kts 208°
2026-04-25 06:07 50.17056 -65.34684 34089 ft 495 kts 208°
2026-04-25 06:07 50.11270 -65.40327 34089 ft 493 kts 207°
2026-04-25 06:08 50.06399 -65.45066 34096 ft 492 kts 208°
2026-04-25 06:08 49.99649 -65.51614 34095 ft 491 kts 208°
2026-04-25 06:09 49.94794 -65.56310 34099 ft 490 kts 207°
2026-04-25 06:09 49.89011 -65.61889 34122 ft 489 kts 208°
2026-04-25 06:10 49.83221 -65.67458 34096 ft 489 kts 208°
2026-04-25 06:10 49.77438 -65.73005 34099 ft 489 kts 208°
2026-04-25 06:11 49.71661 -65.78530 34106 ft 488 kts 208°
2026-04-25 06:11 49.65873 -65.84049 34104 ft 488 kts 208°
2026-04-25 06:12 49.60086 -65.89554 34098 ft 488 kts 208°
2026-04-25 06:12 49.54332 -65.95011 34111 ft 488 kts 208°
2026-04-25 06:13 49.48545 -66.00484 34129 ft 488 kts 209°
2026-04-25 06:14 49.39862 -66.08667 34104 ft 487 kts 209°
2026-04-25 06:14 49.34092 -66.14086 34118 ft 486 kts 209°
2026-04-25 06:15 49.28324 -66.19488 34131 ft 485 kts 210°
2026-04-25 06:15 49.22565 -66.24866 34115 ft 484 kts 210°
2026-04-25 06:16 49.16814 -66.30223 34119 ft 483 kts 209°
2026-04-25 06:16 49.11073 -66.35555 34113 ft 483 kts 209°
2026-04-25 06:17 49.05335 -66.40870 34116 ft 482 kts 209°
2026-04-25 06:17 48.99596 -66.46171 34116 ft 482 kts 209°
2026-04-25 06:18 48.93891 -66.51427 34113 ft 482 kts 209°
2026-04-25 06:18 48.88148 -66.56704 34121 ft 482 kts 210°
2026-04-25 06:19 48.82394 -66.61975 34111 ft 483 kts 210°
2026-04-25 06:19 48.76646 -66.67228 34118 ft 483 kts 210°
2026-04-25 06:20 48.70884 -66.72478 34117 ft 483 kts 209°
2026-04-25 06:20 48.65112 -66.77724 34109 ft 484 kts 209°
2026-04-25 06:21 48.59337 -66.82959 34113 ft 484 kts 209°
2026-04-25 06:21 48.53561 -66.88180 34112 ft 484 kts 209°
2026-04-25 06:22 48.47770 -66.93400 34113 ft 485 kts 210°
2026-04-25 06:22 48.41980 -66.98606 34113 ft 485 kts 210°
2026-04-25 06:23 48.36186 -67.03802 34112 ft 485 kts 209°
2026-04-25 06:23 48.30388 -67.08987 34112 ft 484 kts 210°
2026-04-25 06:24 48.24594 -67.14155 34108 ft 484 kts 210°
2026-04-25 06:24 48.18797 -67.19311 34112 ft 484 kts 210°
2026-04-25 06:25 48.13003 -67.24452 34108 ft 484 kts 210°
2026-04-25 06:25 48.07207 -67.29581 34105 ft 483 kts 210°
2026-04-25 06:26 48.01417 -67.34690 34117 ft 483 kts 210°
2026-04-25 06:26 47.95625 -67.39788 34117 ft 483 kts 210°
2026-04-25 06:27 47.89836 -67.44870 34124 ft 483 kts 210°
2026-04-25 06:27 47.84045 -67.49941 34118 ft 483 kts 210°
2026-04-25 06:28 47.78250 -67.55001 34116 ft 483 kts 210°
2026-04-25 06:28 47.72447 -67.60056 34116 ft 483 kts 210°
2026-04-25 06:29 47.66643 -67.65099 34116 ft 483 kts 210°
2026-04-25 06:29 47.60838 -67.70131 34117 ft 483 kts 210°
2026-04-25 06:30 47.55027 -67.75147 34111 ft 483 kts 209°
2026-04-25 06:30 47.48796 -67.78832 34132 ft 483 kts 196°
2026-04-25 06:31 47.42323 -67.81547 34115 ft 484 kts 195°
2026-04-25 06:31 47.35844 -67.84277 34098 ft 484 kts 195°
2026-04-25 06:32 47.29390 -67.87063 34089 ft 483 kts 197°
2026-04-25 06:32 47.22937 -67.89870 34092 ft 483 kts 197°
2026-04-25 06:33 47.16537 -67.92649 34093 ft 483 kts 197°
2026-04-25 06:33 47.10088 -67.95438 34079 ft 483 kts 197°
2026-04-25 06:34 47.03639 -67.98218 34082 ft 483 kts 197°
2026-04-25 06:34 46.97182 -68.00995 34075 ft 483 kts 197°
2026-04-25 06:35 46.90724 -68.03766 34067 ft 484 kts 197°
2026-04-25 06:35 46.84256 -68.06535 34077 ft 485 kts 197°
2026-04-25 06:36 46.78106 -68.09161 33980 ft 488 kts 197°
2026-04-25 06:36 46.74817 -68.10555 33500 ft 491 kts 197°
2026-04-25 06:36 46.71548 -68.11923 33082 ft 487 kts 197°
2026-04-25 06:36 46.68307 -68.13270 32653 ft 480 kts 197°
2026-04-25 06:37 46.65116 -68.14593 32241 ft 475 kts 196°
2026-04-25 06:37 46.61951 -68.15904 31841 ft 469 kts 196°
2026-04-25 06:37 46.58830 -68.17197 31439 ft 464 kts 196°
2026-04-25 06:37 46.55738 -68.18479 31053 ft 459 kts 196°
2026-04-25 06:38 46.52680 -68.19746 30658 ft 455 kts 196°
2026-04-25 06:38 46.49652 -68.21000 30271 ft 451 kts 196°
2026-04-25 06:38 46.46650 -68.22241 29832 ft 446 kts 196°
2026-04-25 06:38 46.43717 -68.23453 29377 ft 442 kts 196°
2026-04-25 06:39 46.40773 -68.24669 28932 ft 438 kts 196°
2026-04-25 06:39 46.37856 -68.25871 28492 ft 433 kts 195°
2026-04-25 06:39 46.34969 -68.27060 28046 ft 429 kts 195°
2026-04-25 06:39 46.32108 -68.28237 27629 ft 425 kts 195°
2026-04-25 06:40 46.29278 -68.29400 27192 ft 421 kts 195°
2026-04-25 06:40 46.26469 -68.30553 26772 ft 418 kts 195°
2026-04-25 06:40 46.23686 -68.31694 26351 ft 414 kts 195°
2026-04-25 06:40 46.20926 -68.32824 25945 ft 410 kts 195°
2026-04-25 06:41 46.18190 -68.33944 25543 ft 407 kts 195°
2026-04-25 06:41 46.15478 -68.35052 25148 ft 404 kts 194°
2026-04-25 06:41 46.12779 -68.36154 24751 ft 400 kts 194°
2026-04-25 06:41 46.10107 -68.37244 24364 ft 397 kts 194°
2026-04-25 06:42 46.07459 -68.38323 23987 ft 394 kts 194°
2026-04-25 06:42 46.04828 -68.39394 23589 ft 391 kts 194°
2026-04-25 06:42 46.02220 -68.40454 23139 ft 388 kts 194°
2026-04-25 06:42 45.99629 -68.41507 22690 ft 385 kts 194°
2026-04-25 06:43 45.97058 -68.42550 22248 ft 383 kts 194°
2026-04-25 06:43 45.94501 -68.43586 21816 ft 380 kts 194°
2026-04-25 06:43 45.91962 -68.44615 21390 ft 378 kts 194°
2026-04-25 06:43 45.89440 -68.45635 20971 ft 376 kts 194°
2026-04-25 06:44 45.86928 -68.46651 20554 ft 374 kts 194°
2026-04-25 06:44 45.84423 -68.47662 20153 ft 372 kts 194°
2026-04-25 06:44 45.81938 -68.48665 19740 ft 370 kts 194°
2026-04-25 06:44 45.79461 -68.49663 19341 ft 369 kts 194°
2026-04-25 06:45 45.76994 -68.50657 18953 ft 367 kts 194°
2026-04-25 06:45 45.74532 -68.51648 18563 ft 366 kts 194°
2026-04-25 06:45 45.72085 -68.52631 18153 ft 365 kts 195°
2026-04-25 06:45 45.69646 -68.53611 17690 ft 364 kts 195°
2026-04-25 06:46 45.67217 -68.54586 17269 ft 362 kts 195°
2026-04-25 06:46 45.65609 -68.55231 16984 ft 361 kts 195°
2026-04-25 06:46 45.62403 -68.56515 16427 ft 360 kts 195°
2026-04-25 06:46 45.59995 -68.57479 16014 ft 359 kts 195°
2026-04-25 06:47 45.57597 -68.58438 15607 ft 358 kts 195°
2026-04-25 06:47 45.55203 -68.59394 15202 ft 356 kts 195°
2026-04-25 06:47 45.53588 -68.60039 14933 ft 356 kts 195°
2026-04-25 06:47 45.50434 -68.61297 14409 ft 354 kts 195°
2026-04-25 06:48 45.48831 -68.61936 14149 ft 354 kts 195°
2026-04-25 06:48 45.46465 -68.62878 13745 ft 353 kts 195°
2026-04-25 06:48 45.44106 -68.63817 13312 ft 351 kts 195°
2026-04-25 06:48 45.41753 -68.64752 12883 ft 350 kts 195°
2026-04-25 06:49 45.39411 -68.65683 12464 ft 349 kts 195°
2026-04-25 06:49 45.37076 -68.66609 12046 ft 348 kts 195°
2026-04-25 06:49 45.34751 -68.67531 11626 ft 347 kts 195°
2026-04-25 06:49 45.32433 -68.68450 11219 ft 345 kts 195°
2026-04-25 06:50 45.30129 -68.69362 11002 ft 338 kts 195°
2026-04-25 06:50 45.27933 -68.70231 10977 ft 325 kts 195°
2026-04-25 06:50 45.25793 -68.71077 10885 ft 315 kts 195°
2026-04-25 06:50 45.23691 -68.71907 10614 ft 312 kts 195°
2026-04-25 06:51 45.21610 -68.72728 10384 ft 308 kts 195°
2026-04-25 06:51 45.19550 -68.73541 10127 ft 305 kts 195°
2026-04-25 06:51 45.17517 -68.74341 9866 ft 303 kts 195°
2026-04-25 06:51 45.15470 -68.75148 9367 ft 307 kts 195°
2026-04-25 06:52 45.13399 -68.75963 8898 ft 310 kts 194°
2026-04-25 06:52 45.11303 -68.76787 8428 ft 314 kts 194°
2026-04-25 06:52 45.09195 -68.77615 7967 ft 316 kts 194°
2026-04-25 06:52 45.07059 -68.78453 7510 ft 319 kts 193°
2026-04-25 06:53 45.04916 -68.79294 7057 ft 321 kts 193°
2026-04-25 06:53 45.02749 -68.80143 6611 ft 323 kts 193°
2026-04-25 06:53 45.00586 -68.80990 6123 ft 320 kts 193°
2026-04-25 06:53 44.98463 -68.81821 5639 ft 313 kts 194°
2026-04-25 06:54 44.96379 -68.82636 5145 ft 308 kts 194°
2026-04-25 06:54 44.94356 -68.83428 4671 ft 303 kts 194°
2026-04-25 06:54 44.92342 -68.84215 4183 ft 298 kts 194°
2026-04-25 06:54 44.90361 -68.84997 3722 ft 295 kts 197°
2026-04-25 06:55 44.88553 -68.86301 3209 ft 292 kts 222°
2026-04-25 06:55 44.87351 -68.88535 2752 ft 284 kts 250°
2026-04-25 06:55 44.87003 -68.91193 2332 ft 272 kts 279°
2026-04-25 06:55 44.87545 -68.93580 2288 ft 244 kts 302°
2026-04-25 06:56 44.88022 -68.95803 2260 ft 234 kts 274°
2026-04-25 06:56 44.87611 -68.97940 2242 ft 223 kts 239°
2026-04-25 06:56 44.86492 -68.99340 2045 ft 213 kts 202°
2026-04-25 06:56 44.85076 -68.99576 1916 ft 204 kts 169°
2026-04-25 06:57 44.83649 -68.99583 1885 ft 210 kts 198°
2026-04-25 06:57 44.82478 -69.00703 1893 ft 202 kts 238°
2026-04-25 06:57 44.82047 -69.02493 1884 ft 190 kts 279°
2026-04-25 06:57 44.82486 -69.04151 1847 ft 179 kts 317°
2026-04-25 06:58 44.83404 -69.05320 1879 ft 180 kts 327°
2026-04-25 06:58 44.84525 -69.05950 1870 ft 172 kts
2026-04-25 06:58 44.85594 -69.05382 1870 ft 170 kts 43°
2026-04-25 06:58 44.86101 -69.03886 1872 ft 176 kts 82°
2026-04-25 06:59 44.86086 -69.02151 1881 ft 179 kts 86°
2026-04-25 06:59 44.86075 -69.00386 1881 ft 181 kts 84°
2026-04-25 06:59 44.86048 -68.98596 1878 ft 183 kts 85°
2026-04-25 06:59 44.86013 -68.96812 1873 ft 181 kts 85°
2026-04-25 07:00 44.85974 -68.95035 1866 ft 181 kts 85°
2026-04-25 07:00 44.85858 -68.93275 1846 ft 184 kts 102°
2026-04-25 07:00 44.85090 -68.91808 1884 ft 192 kts 136°
2026-04-25 07:00 44.84033 -68.90647 1881 ft 193 kts 136°
2026-04-25 07:01 44.82973 -68.89481 1886 ft 194 kts 136°
2026-04-25 07:01 44.81904 -68.88306 1884 ft 196 kts 136°
2026-04-25 07:01 44.80837 -68.87108 1878 ft 195 kts 131°
2026-04-25 07:01 44.79918 -68.85717 1878 ft 194 kts 126°
2026-04-25 07:02 44.79006 -68.84309 1879 ft 195 kts 127°
2026-04-25 07:02 44.78090 -68.82898 1879 ft 195 kts 127°
2026-04-25 07:02 44.77175 -68.81484 1875 ft 196 kts 127°
2026-04-25 07:02 44.76259 -68.80072 1877 ft 195 kts 127°
2026-04-25 07:03 44.75344 -68.78665 1874 ft 194 kts 127°
2026-04-25 07:03 44.74433 -68.77269 1871 ft 192 kts 127°
2026-04-25 07:03 44.73530 -68.75887 1871 ft 192 kts 127°
2026-04-25 07:03 44.72629 -68.74509 1853 ft 191 kts 127°
2026-04-25 07:04 44.71734 -68.73139 1861 ft 189 kts 127°
2026-04-25 07:04 44.70846 -68.71784 1880 ft 188 kts 127°
2026-04-25 07:04 44.69945 -68.70411 1883 ft 193 kts 127°
2026-04-25 07:04 44.69026 -68.69005 1886 ft 196 kts 127°
2026-04-25 07:05 44.67940 -68.67839 1857 ft 202 kts 158°
2026-04-25 07:05 44.66556 -68.67562 1891 ft 201 kts 167°
2026-04-25 07:05 44.65357 -68.66676 1900 ft 195 kts 125°
2026-04-25 07:05 44.64841 -68.65019 1866 ft 179 kts 83°
2026-04-25 07:06 44.65299 -68.63549 1879 ft 165 kts 34°
2026-04-25 07:06 44.66368 -68.63253 1886 ft 164 kts 344°
2026-04-25 07:06 44.67350 -68.64117 1908 ft 170 kts 328°
2026-04-25 07:06 44.68299 -68.65158 1900 ft 175 kts 327°
2026-04-25 07:07 44.69244 -68.66249 1863 ft 174 kts 324°
2026-04-25 07:07 44.70110 -68.67401 1868 ft 169 kts 321°
2026-04-25 07:07 44.70940 -68.68581 1877 ft 170 kts 320°
2026-04-25 07:07 44.71762 -68.69765 1891 ft 173 kts 320°
2026-04-25 07:08 44.72608 -68.70994 1867 ft 175 kts 320°
2026-04-25 07:08 44.73466 -68.72238 1883 ft 181 kts 320°
2026-04-25 07:08 44.74345 -68.73519 1730 ft 183 kts 319°
2026-04-25 07:08 44.75218 -68.74787 1502 ft 178 kts 319°
2026-04-25 07:09 44.76064 -68.76016 1273 ft 172 kts 318°
2026-04-25 07:09 44.76884 -68.77206 992 ft 164 kts 316°
2026-04-25 07:09 44.77654 -68.78325 752 ft 153 kts 315°
2026-04-25 07:09 44.78379 -68.79376 564 ft 148 kts 315°
2026-04-25 07:10 44.79110 -68.80434 306 ft 151 kts 316°
2026-04-25 07:10 44.79798 -68.81441 186 ft 133 kts 315°
2026-04-25 07:10 44.80365 -68.82254 175 ft 89 kts 314°
2026-04-25 07:10 44.80662 -68.82681 179 ft 48 kts 315°
2026-04-25 07:11 44.80887 -68.83000 183 ft 44 kts 314°
2026-04-25 07:11 44.81073 -68.83266 184 ft 22 kts 321°
2026-04-25 07:11 44.81181 -68.83281 184 ft 16 kts 30°
2026-04-25 07:11 44.81265 -68.83177 187 ft 16 kts 43°
2026-04-25 07:12 44.81299 -68.83020 183 ft 22 kts 116°
2026-04-25 07:12 44.81079 -68.82687 181 ft 23 kts 134°
2026-04-25 07:12 44.80970 -68.82530 179 ft 22 kts 134°
2026-04-25 07:13 44.80866 -68.82375 178 ft 21 kts 122°
2026-04-25 07:13 44.80900 -68.82192 177 ft 21 kts 52°
2026-04-25 07:13 44.80889 -68.82011 176 ft 20 kts 129°
2026-04-25 07:13 44.80842 -68.81943 175 ft 9 kts 135°
2026-04-25 07:14 44.80832 -68.81928 175 ft 0 kts 135°